User: anonymous   Login
Location: Unspecified
(0.0000°N, 0.0000°E)
Time: 08:30:27
(UTC+00:00)
Language:

Courier 1B Rocket - Orbit

View from above orbital plane
View from above orbital plane
View from above satellite
View from above satellite

Ground track
Ground track

The orbit data is extracted from the following two-line orbital elements,

1 00059U 60013B   16270.54246292  .00000094  00000-0  12347-4 0  9998
2 00059  28.2497   3.5923 0189330  32.3469 328.8531 13.52943203762806
Epoch (UTC): 26 September 2016 13:01:08
Eccentricity: 0.0189330
inclination: 28.2497°
perigee height: 920 km
apogee height: 1202 km
right ascension of ascending node: 3.5923°
argument of perigee: 32.3469°
revolutions per day: 13.52943203
mean anomaly at epoch: 328.8531°
orbit number at epoch: 76280

The dashed part of the orbit path shows where the satellite is in the earth's shadow,  

DLR